Regional Weather Roundup
Issued by NWS

Home | Current Version | Previous Version | Graphics & Text | Print | Product List | Glossary On
Versions: 1 2 3 4 5 6 7 8 9 10 11 12 13 14 15 16 17 18 19 20 21 22 23 24 25 26 27 28 29 30 31 32 33 34 35 36 37 38 39 40 41 42 43 44 45 46 47 48 49 50
000
ASUS43 KIND 201709
RWRIN

WEATHER ROUNDUP FOR INDIANA
NATIONAL WEATHER SERVICE INDIANAPOLIS IN
100 PM EDT SUN APR 20 2014

NOTE: "FAIR" INDICATES FEW OR NO CLOUDS BELOW 12,000 FEET WITH NO
SIGNIFICANT WEATHER AND/OR OBSTRUCTIONS TO VISIBILITY.

* - STATION DOES NOT REPORT WEATHER SUCH AS PRECIPITATION OR FOG.

+ - STATION NOT QUALITY CONTROLLED BY THE NATIONAL WEATHER SERVICE.
    USE DATA WITH CAUTION...ESPECIALLY DEWPOINT AND RELATIVE
    HUMIDITY OBSERVATIONS.

INZ001>003-010>013-019-020-201800-
NORTHWEST INDIANA

CITY           SKY/WX    TMP DP  RH WIND       PRES   REMARKS
GARY /AIRPORT/ MOSUNNY   70  34  26 SE12      30.20F
LA PORTE +     SUNNY     66  33  28 S9        30.22F
MICHIGAN CITY+ MOSUNNY   70  32  24 SW8       30.22S
MONTICELLO +   MOSUNNY   65  38  37 SE5       30.22F
RENSSELAER +   SUNNY     70  34  26 S8        30.21F
VALPARAISO     SUNNY     68  34  28 S8        30.22F

$$

LMZ046-743>745-201800-
SOUTHERN LAKE MICHIGAN

STATION/POSITION TIME  TEMP WIND        PRES
                       AIR  DIR/SP/G
                 (UTC) (F)  (DEG/KT/KT) (MB)
MICHIGAN CITY    1700   65  180/ 12/ 15   N/A

$$

INZ004-005-014>016-021>024-201800-
NORTH CENTRAL INDIANA

CITY           SKY/WX    TMP DP  RH WIND       PRES   REMARKS
ELKHART        MOSUNNY   66  30  26 S9        30.23
GOSHEN         MOSUNNY   66  32  28 S12G21    30.23F
LOGANSPORT +   MOSUNNY   68  32  26 S8        30.23F
PERU/GRISSOM   MOSUNNY   69  36  30 S7        30.23F
ROCHESTER +    MOSUNNY   68  34  28 SW6       30.24F
SOUTH BEND     MOSUNNY   68  32  26 S6        30.23F
WARSAW +       PTSUNNY   64  34  32 S6        30.24S

$$

INZ006>009-017-018-025>027-201800-
NORTHEAST INDIANA

CITY           SKY/WX    TMP DP  RH WIND       PRES   REMARKS
ANGOLA *+      SUNNY     64  34  32 SW10      30.24S
AUBURN +       PTSUNNY   66  30  26 S6        30.24F
FORT WAYNE     PTSUNNY   66  32  28 SW7       30.24F

$$

INZ028-029-035-036-043>045-051>053-201800-
WEST CENTRAL INDIANA

CITY           SKY/WX    TMP DP  RH WIND       PRES   REMARKS
GREENCASTLE +  SUNNY     68  37  32 CALM      30.22F
LAFAYETTE      SUNNY     68  33  27 VRB6      30.21F
TERRE HAUTE    SUNNY     70  38  31 S3        30.22F

$$

INZ030>032-037>040-046>048-054>057-064-065-201800-
CENTRAL INDIANA

CITY           SKY/WX    TMP DP  RH WIND       PRES   REMARKS
CP ATTERBURY + SUNNY     70  36  28 CALM      30.22F
COLUMBUS       SUNNY     68  39  34 SW6       30.23F
FISHERS *+     SUNNY     68  36  30 S5        30.22
INDIANAPOLIS   MOSUNNY   68  37  32 S12       30.22F
-EAGLE CREEK   MOSUNNY   67  37  33 VRB6      30.22F
KOKOMO *+      MOSUNNY   68  36  30 S9        30.23F
MARION +       PTSUNNY   68  31  26 SW7       30.24S
MT COMFORT *+  SUNNY     70  37  30 S9        30.23F
SHELBYVILLE    SUNNY     71  38  29 S13       30.22F
ZIONSVILLE +   MOSUNNY   69  30  23 S12G17    30.23F

$$

INZ033-034-041-042-049-050-058-059-201800-
EAST CENTRAL INDIANA

CITY           SKY/WX    TMP DP  RH WIND       PRES   REMARKS
MUNCIE         MOSUNNY   69  34  27 S8        30.23F

$$

INZ060-061-067>069-081>083-085>088-201800-
SOUTHWEST INDIANA

CITY           SKY/WX    TMP DP  RH WIND       PRES   REMARKS
EVANSVILLE     SUNNY     72  36  26 CALM      30.22F
HUNTINGBURG *+ SUNNY     72  43  35 W6        30.22F
WASHINGTON +   SUNNY     71  35  26 CALM      30.21F

$$

INZ062-063-066-070>080-084-089>092-201800-
SOUTH CENTRAL AND SOUTHEAST INDIANA

CITY           SKY/WX    TMP DP  RH WIND       PRES   REMARKS
BEDFORD +      SUNNY     70  32  24 SE6       30.22F
BLOOMINGTON    SUNNY     70  31  23 VRB5      30.21F
NORTH VERNON + SUNNY     72  32  23 SE5       30.23
SEYMOUR +      SUNNY     66  27  22 SW6       30.22F

$$




USA.gov is the U.S. government's official web portal to all federal, state and local government web resources and services.